Regional Weather Roundup
Issued by NWS Sioux Falls, SD

Home | Current Version | Previous Version | Text Only | Print | Product List | Glossary Off
Versions: 1 2 3 4 5 6 7 8 9 10 11 12 13 14 15 16 17 18 19 20 21 22 23 24 25 26 27 28 29 30 31 32 33 34 35 36 37 38 39 40 41 42 43 44 45 46 47 48 49 50

000
ASUS43 KFSD 272210
RWRFSD

WEATHER ROUNDUP FOR SE SOUTH DAKOTA/SW MINNESOTA/NW IOWA
NATIONAL WEATHER SERVICE SIOUX FALLS SD
500 PM CDT MON JUL 27 2015

NOTE: "FAIR" INDICATES FEW OR NO CLOUDS BELOW 12,000 FEET WITH NO
SIGNIFICANT WEATHER AND OR OBSTRUCTIONS TO VISIBILITY.


SDZ038>040-050-052>070-272300-
SOUTHEAST SOUTH DAKOTA

CITY           SKY/WX    TMP DP  RH WIND       PRES   REMARKS
BROOKINGS      FAIR      84  66  54 SE12G20   29.84F
CHAMBERLAIN    PTSUNNY   90  73  57 SE20      29.72F HX  99
HURON          MOSUNNY   88  70  55 SE17G28   29.74F
MADISON        FAIR      84  72  65 S21G26    29.83F
MITCHELL       MOSUNNY   87  76  69 S20G28    29.76F HX  97
SIOUX FALLS    FAIR      85  71  63 S14       29.81F
WINNER         FAIR      93  66  40 SE18G28   29.72F HX  96
YANKTON        FAIR      88  75  66 SE15G21   29.77F HX  97
$$

MNZ071-072-080-081-089-090-097-098-272300-
SOUTHWEST MINNESOTA

CITY           SKY/WX    TMP DP  RH WIND       PRES   REMARKS
FAIRMONT       FAIR      82  66  57 SE15      29.87F
JACKSON        FAIR      84  70  61 SE12      29.88F
LUVERNE        FAIR      86  68  54 S12       29.85S
MARSHALL       FAIR      88  66  48 S15       29.85F
MONTEVIDEO     FAIR      88  73  62 S12G21    29.86F HX  96
PIPESTONE      FAIR      84  70  61 SE10      29.85F
REDWOOD FALLS  FAIR      85  72  65 S14       29.85F
TRACY          FAIR      84  70  61 S14       29.86F
WINDOM         FAIR      84  68  58 SE13      29.87F
WORTHINGTON    FAIR      82  70  65 SE12      29.87S
$$

IAZ001>003-012>014-020>022-031-032-NEZ013-014-SDZ071-272300-
NORTHWEST IOWA

CITY           SKY/WX    TMP DP  RH WIND       PRES   REMARKS
CHEROKEE       FAIR      83  74  73 S15G24    29.85F
DENISON        FAIR      79  72  78 SE15G22   29.87F
ESTHERVILLE    FAIR      82  68  62 SE12      29.87F
LE MARS        FAIR      84  75  74 SE18G25   29.84F
ORANGE CITY    FAIR      84  72  65 S15       29.85F
SHELDON        FAIR      84  73  70 S15       29.84F
SIOUX CITY     FAIR      86  75  69 SE14      29.82F HX  95
SPENCER        FAIR      86  70  58 S8        29.86F
STORM LAKE     FAIR      82  72  69 S17G23    29.88F
$$

ABBREVIATIONS USED IN REMARKS
   TC - TEMPERATURE IN CELSIUS
  WCI - WIND CHILL INDEX
   HX - HEAT INDEX
  VSB - VISIBILITY



USA.gov is the U.S. government's official web portal to all federal, state and local government web resources and services.